User: anonymous   Login
Location: Unspecified
(0.0000°N, 0.0000°E)
Time: 08:59:46
(UTC+00:00)
Language:

UFO 10 - Orbit

View from above orbital plane
View from above orbital plane
View from above satellite
View from above satellite

Ground track
Ground track

The orbit data is extracted from the following two-line orbital elements,

1 25967U 99063A   17193.10274160 0.00000000  00000-0  00000-0 0    01
2 25967   6.6606  39.0349 0003556  30.0922 329.9466  1.00270000    07
Epoch (UTC): 12 July 2017 02:27:56
Eccentricity: 0.0003556
inclination: 6.6606°
perigee height: 35772 km
apogee height: 35802 km
right ascension of ascending node: 39.0349°
argument of perigee: 30.0922°
revolutions per day: 1.00270000
mean anomaly at epoch: 329.9466°
orbit number at epoch: 0

The dashed part of the orbit path shows where the satellite is in the earth's shadow,  

DLR